www.pogodaiklimat.ru

Погода и климат >> Архив погоды >> Хорватия >> Крижевцы


ПОГОДА в Крижевцах

  • Прогноз погоды в Крижевцах
  • Монитор погоды в Крижевцах

АРХИВ ПОГОДЫ в Крижевцах

Время (UTC), дата Ветер
(напр.,м/с)
 
Видим.   Явления Облачность Т
(С)
Тd
(С)
f
(%)
Тe
(С)
Тes
(С)
Комфортность P
(гПа)
Po
(гПа)
Тmin
(С)
Tmax
(С)
R
(мм)
R24
(мм)
S
(см)
00 11.08 СВ 6 н/о н/о +23.2 +19.6 80 +30 +30 очень
душно
1015.6 997.5
03 11.08 СВ 5 н/о н/о +22.1 +17.3 74 +27 +27 душно 1017.0 998.8
04 11.08 СВ 4 н/о н/о +21.5 +16.7 74 +25 +25 комфорт 1017.7 999.5
05 11.08 СВ 5 н/о н/о +21.9 +15.3 66 +25 +25 комфорт 1018.3 1000.1
06 11.08 СВ 5 50 км 9/8 2000 м
[Sc Ac trans]
+22.7 +15.2 63 +27 +27 душно 1019.1 1002.2 +21.6
07 11.08 СВ 4 50 км 9/8 2000 м
[Sc Ac trans]
+23.5 +15.5 61 +27 +27 душно 1019.2 1002.4
08 11.08 С 5 50 км 9/8 2000 м
[Sc Ac trans]
+23.9 +15.8 60 +27 +28 жарко 1019.4 1002.6
09 11.08 СВ 4 50 км 9/8 2000 м
[Sc Ac trans]
+24.5 +16.0 59 +28 +29 душно 1019.6 1002.8
10 11.08 С 4 40 км 8/0
[Ac trans Ci sp]
+25.8 +16.5 56 +29 +35 душно 1019.5 1002.8
11 11.08 С 2 40 км 3/0
[Ac trans Ci sp]
+26.2 +17.1 57 +30 +43 душно 1018.8 1002.1
12 11.08 С 3 40 км 1/0
[Ci fib]
+27.0 +17.4 56 +31 +43 душно 1018.2 1001.6
13 11.08 СВ 3 40 км ясно +27.5 +16.8 52 +31 +42 душно 1017.5 1000.9
14 11.08 СВ 2 н/о н/о +28.6 +16.9 49 +32 +32 душно 1016.4 998.6
15 11.08 С 2 н/о н/о +28.8 +17.1 49 +33 +33 очень
душно
1015.8 998.1
16 11.08 С 1 н/о н/о +28.6 +17.9 52 +33 +33 очень
душно
1015.4 997.6
17 11.08 СВ 1 н/о н/о +28.2 +18.1 54 +33 +33 очень
душно
1015.0 997.2
18 11.08 В 1 50 км ясно +26.0 +20.2 70 +32 +32 очень
душно
1015.2 998.6 +28.7
19 11.08 В 1 50 км ясно +23.7 +20.0 80 +29 +29 душно 1015.6 998.9
20 11.08 СЗ 1 50 км ясно +22.1 +20.3 90 +28 +28 душно 1015.7 998.9
21 11.08 штиль 0 н/о н/о +21.1 +20.0 93 +26 +26 душно 1015.2 997.0
00 12.08 СВ 1 н/о н/о +19.0 +18.9 99 +22 +22 комфорт 1014.5 996.2
05 12.08 В 1 н/о н/о +19.6 +18.9 96 +23 +23 комфорт 1013.8 995.5
06 12.08 ЮВ 1 15 км ясно +21.9 +19.8 88 +28 +31 душно 1014.6 997.8 +18.0
07 12.08 ЮЗ 1 15 км ясно +24.9 +19.9 74 +30 +38 душно 1014.3 997.7
08 12.08 Ю 1 15 км ясно +26.9 +20.2 67 +33 +45 очень
душно
1013.9 997.4
09 12.08 Ю 1 15 км ясно +27.9 +20.6 65 +35 +50 очень
душно
1014.0 997.5
10 12.08 ЮВ 1 15 км ясно +29.3 +21.4 62 +37 +55 опасность
солнечного
удара
1013.7 997.3
11 12.08 З 1 15 км ясно +30.7 +22.2 61 +40 +59 опасность
солнечного
удара
1013.2 996.9
12 12.08 В 1 15 км ясно +31.9 +22.1 56 +41 +58 опасность
перегрева
1012.9 996.7
13 12.08 В 2 15 км ясно +32.5 +21.7 53 +41 +53 опасность
перегрева
1012.1 995.9
15 12.08 В 2 н/о н/о +32.8 +21.4 51 +41 +41 опасность
перегрева
1010.8 993.4
16 12.08 ЮВ 2 н/о н/о +32.7 +21.3 51 +40 +40 очень
душно
1010.2 992.8
17 12.08 В 1 н/о н/о +31.2 +22.9 61 +41 +41 опасность
перегрева
1009.9 992.4
18 12.08 СВ 1 15 км 1/0
[Ac cuf]
+28.3 +23.9 77 +39 +39 очень
душно
1010.7 994.3 +33.4
19 12.08 СЗ 1 15 км 1/0
[Ac lent]
+25.7 +23.4 87 +35 +35 очень
душно
1011.1 994.6
20 12.08 СВ 1 15 км 1/0
[Cc]
+24.3 +23.1 93 +32 +32 очень
душно
1011.2 994.6
21 12.08 СЗ 2 н/о н/о +23.9 +23.8 99 +32 +32 очень
душно
1011.0 993.0
00 13.08 С 2 н/о н/о +22.8 +21.0 90 +30 +30 очень
душно
1011.2 993.2
03 13.08 СВ 6 н/о н/о +20.3 +17.0 81 +23 +23 комфорт 1011.9 993.7
04 13.08 С 5 н/о н/о +20.2 +15.9 76 +23 +23 комфорт 1012.9 994.7
05 13.08 С 5 н/о н/о +20.4 +15.9 75 +23 +23 комфорт 1013.6 995.4
06 13.08 СВ 7 50 км 9/6 1500 м
[Sc Ac As]
+20.4 +15.8 75 +23 +23 комфорт 1013.7 996.8 +20.4
07 13.08 С 5 50 км 9/6 1500 м
[Sc Ac As]
+20.7 +15.8 74 +24 +24 комфорт 1015.2 998.3
08 13.08 СВ 7 50 км слаб. дождь 9/3 1500 м
[Sc Ac As]
+20.7 +15.3 71 +23 +24 комфорт 1015.1 998.2
09 13.08 С 5 50 км в посл. час дождь 10/3 1500 м
[Sc Ac As]
+21.4 +15.1 67 +25 +26 комфорт 1015.8 998.9
10 13.08 С 4 40 км 10/3 1500 м
[Sc Ac As]
+22.5 +15.8 66 +27 +29 душно 1015.6 998.8
11 13.08 СВ 4 40 км {дождь} 10/6 1500 м
[Sc Ac As]
+23.4 +16.0 63 +28 +29 душно 1015.8 999.0
12 13.08 СВ 5 40 км {дождь} 10/8 1000 м
[Cu Sc Ac As]
+23.9 +15.5 59 +27 +27 жарко 1015.4 998.7
13 13.08 СВ 5 40 км 9/5 1000 м
[Cu Sc Ac As]
+24.6 +15.6 57 +28 +29 душно 1015.0 998.3
14 13.08 С 6 н/о н/о +24.5 +14.9 55 +27 +27 жарко 1014.3 996.3
15 13.08 СВ 6 н/о н/о +23.6 +14.9 58 +26 +26 жарко 1014.2 996.2
16 13.08 н/о н/о +22.8 +15.0 61 1014.0 995.9
17 13.08 н/о н/о +22.2 +14.9 63 1014.2 996.1
18 13.08 СВ 2 30 км в посл. час дождь 10/0
[Ac As]
+20.6 +16.7 78 +25 +25 комфорт 1014.2 997.3 +25.2 0.2
19 13.08 С 2 30 км 10/8 1500 м
[Sc Ac As]
+20.8 +16.6 77 +25 +25 комфорт 1014.3 997.4
20 13.08 СВ 1 30 км {дождь} 10/8 1000 м
[Sc Ac As]
+20.4 +16.0 76 +24 +24 комфорт 1014.3 997.4
21 13.08 С 3 н/о н/о +20.6 +15.0 70 +24 +24 комфорт 1013.5 995.3
03 14.08 С 5 н/о н/о +15.5 +14.9 96 +14 +14 1014.7 996.2
04 14.08 н/о н/о +15.3 +14.7 96 1016.7 998.1
05 14.08 СВ 4 н/о н/о +15.3 +14.2 93 +14 +14 1016.1 997.5
06 14.08 С 3 40 км в посл. час дождь 10/8 1000 м
[Sc As op]
+15.7 +13.9 89 +15 +15 1016.4 999.2 +15.3 20
07 14.08 С 3 40 км {дождь} 10/4 600 м
[St Ac As]
+16.6 +14.5 87 +16 +17 1016.6 999.4
08 14.08 СЗ 2 40 км {дождь} 9/3 600 м
[St Ac As]
+18.5 +14.6 78 +20 +22 1017.0 999.9
09 14.08 СЗ 1 40 км 9/3 600 м
[St Ac As]
+19.2 +14.5 74 +22 +26 комфорт 1016.9 999.9
10 14.08 С 3 40 км 9/3 1000 м
[Cu Sc Ac As Ci fib]
+20.3 +11.8 58 +22 +27 комфорт 1016.8 999.8
11 14.08 СВ 2 40 км 9/3 1000 м
[Cu Sc Ac trans Ci fib]
+21.3 +12.6 58 +24 +30 комфорт 1017.0 1000.1
12 14.08 СВ 3 40 км 4/3 1000 м
[Cu Sc Ac trans Ci sp]
+21.9 +13.3 58 +25 +33 комфорт 1016.8 999.9
13 14.08 С 5 40 км 8/4 1000 м
[Cb calv Ac trans Ci fib]
+22.1 +13.4 58 +25 +28 комфорт 1016.6 999.7
14 14.08 СВ 4 н/о н/о +22.0 +12.9 56 +25 +25 комфорт 1016.1 997.9
15 14.08 СВ 3 н/о н/о +22.0 +12.6 55 +25 +25 комфорт 1016.1 997.9
16 14.08 С 2 н/о н/о +21.7 +13.4 59 +24 +24 комфорт 1016.0 997.8
17 14.08 С 2 н/о н/о +21.0 +12.5 58 +24 +24 комфорт 1016.2 998.0
18 14.08 В 1 40 км 5/3 1500 м
[Sc Ac As Ci fib]
+19.2 +14.2 73 +22 +22 комфорт 1017.0 1000.0 +22.6
19 14.08 СЗ 1 40 км 9/8 1500 м
[Sc Ac As]
+17.7 +15.1 85 +19 +19 1017.6 1000.5
20 14.08 СЗ 2 40 км 9/9 1500 м
[Sc]
+17.1 +15.5 90 +17 +17 1018.1 1000.9
21 14.08 СЗ 1 н/о н/о +16.7 +15.3 91 +18 +18 1017.9 999.4
00 15.08 штиль 0 н/о н/о +13.6 +13.4 99 +13 +13 1018.1 999.4
03 15.08 штиль 0 н/о н/о +11.8 +11.7 99 +11 +11 1017.9 999.1
04 15.08 штиль 0 н/о н/о +11.3 +11.2 99 +11 +11 1017.9 999.0
05 15.08 СЗ 1 н/о н/о +12.5 +12.1 97 +12 +12 1018.0 999.2
06 15.08 штиль 0 40 км ясно +15.3 +13.4 88 +15 +19 1018.3 1001.0 +11.3
07 15.08 СЗ 1 40 км ясно +19.4 +13.5 69 +22 +29 комфорт 1018.3 1001.2
08 15.08 СВ 2 40 км ясно +20.8 +11.6 56 +24 +33 комфорт 1017.8 1000.8
09 15.08 В 1 40 км 1/1 1000 м
[Cu hum]
+22.3 +12.1 52 +25 +38 комфорт 1017.3 1000.4
10 15.08 С 1 40 км 1/1 1000 м
[Cu hum Ci fib]
+22.8 +11.5 49 +25 +41 комфорт 1016.8 999.9
11 15.08 ЮЗ 2 30 км 5/4 1000 м
[Cu hum Ci fib]
+23.2 +9.5 42 +25 +34 комфорт 1016.4 999.6
12 15.08 СВ 2 30 км 6/5 1000 м
[Cu hum Ci fib]
+23.0 +10.1 44 +25 +32 комфорт 1016.0 999.2
13 15.08 В 2 30 км 6/4 1000 м
[Cu hum Ci fib]
+24.0 +11.2 45 +25 +32 комфорт 1015.6 998.8
14 15.08 З 2 н/о н/о +25.2 +9.5 37 +26 +26 жарко 1014.7 996.8
15 15.08 Ю 2 н/о н/о +24.9 +9.7 38 +26 +26 жарко 1014.6 996.6
16 15.08 Ю 2 н/о н/о +23.5 +9.2 40 +24 +24 комфорт 1014.4 996.4
17 15.08 ЮВ 1 н/о н/о +22.7 +13.3 55 +26 +26 жарко 1014.6 996.5
18 15.08 ЮВ 1 40 км 3/0
[Ac trans Ci fib]
+21.2 +12.7 58 +23 +23 комфорт 1015.1 998.2 +25.1
19 15.08 В 1 40 км 1/0
[Ac trans Ci fib]
+18.9 +13.1 69 +21 +21 комфорт 1015.5 998.5
20 15.08 СЗ 1 40 км ясно +15.8 +13.8 88 +16 +16 1016.1 998.9
21 15.08 штиль 0 н/о н/о +14.8 +13.6 93 +14 +14 1016.4 997.8
00 16.08 СЗ 1 н/о н/о +12.8 +12.9 100 +13 +13 1016.5 997.8
03 16.08 штиль 0 н/о н/о +12.7 +12.8 100 +12 +12 1016.4 997.7
04 16.08 СВ 1 н/о н/о +12.6 +12.7 100 +12 +12 1016.8 998.0
05 16.08 СЗ 1 н/о н/о +13.2 +13.3 100 +13 +13 1017.2 998.5
06 16.08 СВ 1 20 км 9/8 1000 м
[Sc Ac trans]
+15.0 +14.1 94 +15 +16 1017.8 1000.5 +12.5
07 16.08 СЗ 1 20 км 9/8 1000 м
[Sc Ac trans]
+16.7 +13.7 82 +18 +19 1017.9 1000.7
08 16.08 ЮЗ 1 20 км 10/10 1000 м
[Sc]
+17.8 +14.5 81 +19 +19 1018.3 1001.2
09 16.08 СЗ 2 15 км слаб. дождь 10/10 600 м
[Sc]
+17.9 +16.0 89 +18 +18 1018.8 1001.7
10 16.08 СЗ 2 10 км слаб. дождь 10/10 600 м
[Sc]
+19.0 +15.0 78 +21 +21 комфорт 1019.1 1002.0
11 16.08 С 2 15 км слаб. дождь 10/10 600 м
[Sc]
+17.8 +15.4 86 +18 +18 1019.1 1001.9
12 16.08 СВ 1 20 км в посл. час дождь 8/5 600 м
[Cu Sc Ac trans]
+20.8 +16.3 75 +25 +31 комфорт 1018.2 1001.2 1
13 16.08 С 1 20 км 8/3 600 м
[Cu med, cong Ac trans Ci sp]
+22.6 +14.7 61 +26 +33 жарко 1017.6 1000.7
14 16.08 СВ 1 н/о н/о +23.5 +13.1 52 +26 +26 жарко 1017.1 999.0
15 16.08 СВ 1 н/о н/о +23.3 +13.3 53 +26 +26 жарко 1016.9 998.8
16 16.08 З 1 н/о н/о +24.1 +13.4 51 +26 +26 жарко 1016.5 998.5
17 16.08 Ю 1 н/о н/о +22.8 +12.8 53 +26 +26 жарко 1016.5 998.4
18 16.08 Ю 1 20 км 3/3 1000 м
[Sc]
+20.4 +15.5 73 +24 +24 комфорт 1017.3 1000.3 +24.1 1
19 16.08 ЮВ 1 20 км 3/3 1000 м
[Sc]
+17.3 +15.4 89 +18 +18 1018.2 1001.0
20 16.08 В 1 20 км 1/0
[Ac trans]
+16.5 +15.2 92 +17 +17 1018.6 1001.4
21 16.08 СВ 1 н/о н/о +15.5 +15.4 99 +16 +16 1018.6 1000.0
00 17.08 штиль 0 н/о н/о +13.7 +13.8 100 +13 +13 1018.1 999.4
03 17.08 В 1 н/о н/о +12.2 +12.3 100 +12 +12 1017.7 998.9
04 17.08 В 1 н/о н/о +11.6 +11.7 100 +11 +11 1018.2 999.3
05 17.08 В 1 н/о н/о +13.5 +13.6 100 +14 +14 1017.9 999.2
06 17.08 Ю 1 20 км 3/0
[Cs]
+14.7 +13.8 94 +15 +18 1018.5 1001.2 +11.7
07 17.08 Ю 2 20 км 5/1 600 м
[Cu hum Ci sp]
+16.4 +14.9 91 +16 +21 1018.7 1001.5
08 17.08 Ю 2 20 км 8/0
[Ci sp]
+19.0 +15.7 81 +21 +29 комфорт 1018.7 1001.6
09 17.08 Ю 2 20 км 9/0
[Cs]
+20.0 +15.7 76 +23 +33 комфорт 1018.3 1001.3
10 17.08 Ю 3 20 км 8/1 600 м
[Cu hum Cs]
+22.0 +15.6 67 +26 +35 душно 1017.8 1000.9
11 17.08 Ю 3 20 км 5/0
[Cs]
+24.1 +15.2 58 +27 +39 жарко 1017.3 1000.5
12 17.08 Ю 3 20 км 3/0
[Cs]
+24.9 +14.1 51 +27 +39 жарко 1016.8 1000.1
13 17.08 ЮЗ 3 20 км 3/0
[Ci sp]
+25.5 +14.0 49 +28 +37 жарко 1016.2 999.5
14 17.08 Ю 3 н/о н/о +26.1 +14.0 47 +28 +28 жарко 1015.4 997.5
15 17.08 Ю 3 н/о н/о +26.5 +13.0 43 +28 +28 жарко 1015.1 997.2
16 17.08 Ю 2 н/о н/о +26.2 +13.1 44 +28 +28 жарко 1014.9 997.0
17 17.08 Ю 3 н/о н/о +25.3 +13.9 49 +28 +28 жарко 1014.6 996.7
18 17.08 Ю 1 20 км 5/0
[Cs]
+21.9 +16.3 71 +26 +26 душно 1015.5 998.6 +26.5
19 17.08 ЮВ 1 20 км 3/0
[Ci fib]
+19.9 +16.3 80 +23 +23 комфорт 1015.7 998.7
20 17.08 СЗ 1 20 км 3/0
[Ci fib]
+17.5 +16.0 91 +19 +19 1015.8 998.7

 

Местоположение метеостанции Крижевцы (Хорватия): широта 46.03 долгота 16.55 высота над уровнем моря 146 м.

В архиве по умолчанию представлена погода в Крижевцах за последнюю неделю. Архивные данные за месяц целиком и за предыдущие месяцы, начиная с января 2011 года, Вы можете получить, выбрав интересующий диапазон дат из раскрывающегося списка и нажав кнопку "Ввод!".


*Определитесь, кто Вы:
робот инопланетянин человек

Внимание! Время в таблицах - всемирное. Для получения местного времени необходимо прибавить поправку, которая равна 1 ч.

Смотрите также архив погоды в соседних городах и на ближайших метеорологических станциях:

Погода в Вараздине (Хорватия) (33 км)
Погода в Бьеловаре (Хорватия) (41 км)
Погода в Пунтиярке (Хорватия) (46 км)
Погода в Загребе (Хорватия) (47 км)
Погода в Загреб-Градеце (Хорватия) (50 км)
Погода в Загреб аэропорту (Хорватия) (50 км)
Погода в Крапине (Хорватия) (53 км)
Погода на Било-Горе (Хорватия) (53 км)
Погода в Надьканиже (Венгрия) (57 км)
Погода в Сисаке (Хорватия) (61 км)

Пояснения к столбцам:

Ветер - указаны скорость ветра в м/с - средняя за 10 мин, порывы в срок и между сроками (в фигурных скобках) и направление, откуда дует ветер: С - северный, СВ - северо-восточный, В - восточный, ЮВ - юго-восточный, Ю - южный, ЮЗ - юго-западный, З - западный, СЗ - северо-западный.
Видимость - горизонтальная дальность видимости в метрах или километрах. При видимости от 1 до 10 км при отсутствии осадков обычно наблюдается дымка, при ухудшении видимости до 1 км и менее - туман. В сухую погоду видимость может ухудшаться дымом, пылью или мглою.
Явления - указаны атмосферные явления, наблюдавшиеся в срок или в последний час перед сроком; фигурными скобками обозначены явления, наблюдавшиеся между сроками (за 1-3 часа до срока); квадратными скобками обозначены град или гололедные отложения с указанием их диаметра в мм.
Облачность - указаны через наклонную черту общая и нижняя облачность в баллах и высота нижней границы облаков в метрах; квадратными скобками обозначены формы облаков: Ci - перистые, Cs - перисто-слоистые, Cc - перисто-кучевые, Ac - высококучевые, As - высокослоистые, Sc - слоисто-кучевые, Ns - слоисто-дождевые, Cu - кучевые, Cb - кучево-дождевые. Подробнее классификацию облаков см. в Атласе облаков (PDF).
T - Температура воздуха - температура, измеренная на высоте 2 м над землей.
Td - Температура точки росы - температура, при понижении до которой содержащийся в воздухе водяной пар достигнет насыщения.
f - Относительная влажность воздуха - влажноcть воздуха, измеренная на высоте 2 м над землей.
Te - Эффективная температура - температура, которую ощущает одетый по сезону человек в тени. Характеристика душности погоды. При расчете учитывается влияние влажности воздуха и скорости ветра на теплоощущения человека.
Tes - Эффективная температура на солнце - температура, которую ощущает человек, с поправкой на солнечный нагрев. Характеристика знойности погоды. Зависит от высоты солнца над горизонтом, облачности и скорости ветра. Ночью, в пасмурную погоду, а также при ветре 12 м/с и более поправка равна нулю.
P - Атмосферное давление - приведенное к уровню моря атмосферное давление.
Po - Атмосферное давление - измеренное на уровне метеостанции атмосферное давление.
Tmin - Минимальная температура - минимум температуры воздуха на высоте 2 м над землей.
Tmax - Максимальная температура - максимум температуры воздуха на высоте 2 м над землей.
R - Количество осадков - Количество выпавших осадков за период времени, мм. При наведении курсора мыши на число - период времени, за который выпало указанное количество осадков.
R24 - Количество осадков - Количество выпавших осадков за 24 часа, мм.
S - Снежный покров - Высота снежного покрова, см. При наведении курсора мыши на число - состояние снежного покрова и степень покрытия местности в баллах.